Location: Washington
(38.8950°N, 77.0370°W)
Time: 21:42:40
(UTC-04:00)

Amateur Radio Satellites - All Passes

Search period start: 26 June 2017 21:12
Search period end: 27 June 2017 21:12
Location: Washington, 38.8950°N, 77.0370°W

Satellite Date Start Highest point End Downlink Frequencies (MHz)
Time Altitude Azimuth
SEEDS 26 Jun 21:15:53 21:18:02 14° 268° (W) 21:20:10 437.485
PCSat 26 Jun 21:24:23 21:29:47 62° 59° (ENE) 21:35:08 145.827
DELFI C3 26 Jun 21:40:41 21:44:26 46° 74° (ENE) 21:48:12 145.870
AO-85 26 Jun 21:44:07 21:47:25 24° 310° (NW) 21:50:39 145.980
M-CUBED/EXP-1 PRIME 26 Jun 21:44:51 21:45:36 10° 98° (E) 21:46:21 437.505
AO-73 26 Jun 21:45:12 21:49:10 30° 264° (W) 21:53:12 145.935
HO-68 26 Jun 21:48:11 21:50:06 11° 272° (W) 21:52:00 435.675
BEESAT 2 26 Jun 21:58:50 22:02:48 77° 301° (WNW) 22:06:51 435.950
STRAND 1 26 Jun 22:05:08 22:08:17 17° 297° (WNW) 22:11:25 437.568
PRISM 26 Jun 22:08:58 22:11:25 15° 93° (E) 22:13:51 437.425
Oscar 11 26 Jun 22:11:53 22:15:00 19° 266° (W) 22:18:08 .
NO-84 26 Jun 22:14:09 22:17:57 54° 320° (NW) 22:22:04 435.350 FM
FO-29 26 Jun 22:19:33 22:27:01 45° 97° (E) 22:34:17 435.910
EO-88 26 Jun 22:20:11 22:23:50 81° 258° (WSW) 22:27:32 145.990 - 145.960
ZACube-1 26 Jun 22:24:07 22:25:25 11° 271° (W) 22:26:43 437.345
YUBILEINY 26 Jun 22:31:16 22:40:03 85° 95° (E) 22:48:57 435.215
BEESAT 3 26 Jun 22:36:51 22:38:54 14° 316° (NW) 22:40:57 437.485
TIGRISAT 26 Jun 22:39:26 22:43:40 35° 97° (E) 22:47:49 435.000
LO-87 26 Jun 22:39:38 22:42:11 19° 69° (ENE) 22:44:45 145.935 - 145.965
O/OREOS (USA 219) 26 Jun 22:40:18 22:44:16 29° 298° (WNW) 22:48:15 437.305
RS-15 26 Jun 22:40:48 22:52:38 54° 311° (NW) 23:04:44 29.354- 29.394
SO-50 26 Jun 22:59:49 23:04:09 43° 54° (NE) 23:08:30 436.795
ESTCUBE 1 26 Jun 23:06:02 23:09:51 28° 69° (ENE) 23:13:41 437.505/2401.250
PCSat 26 Jun 23:09:15 23:12:37 17° 256° (WSW) 23:15:57 145.827
M-CUBED/EXP-1 PRIME 26 Jun 23:16:29 23:20:11 55° 290° (WNW) 23:24:10 437.505
DELFI C3 26 Jun 23:18:10 23:19:27 11° 269° (W) 23:20:44 145.870
UNISAT 6 26 Jun 23:21:41 23:26:20 74° 285° (WNW) 23:30:52 437.425
AIST 2D 26 Jun 23:34:46 23:36:50 15° 93° (E) 23:38:53 435.315
PRISM 26 Jun 23:43:00 23:46:50 39° 288° (WNW) 23:50:39 437.425
NO-84 26 Jun 23:54:07 23:56:23 14° 340° (NNW) 23:58:43 435.350 FM
POLYITAN 1 26 Jun 23:54:50 23:57:01 14° 92° (E) 23:59:09 437.675
FO-29 27 Jun 00:04:41 00:11:48 40° 294° (WNW) 00:18:50 435.910
QB50P2 27 Jun 00:04:55 00:08:04 20° 94° (E) 00:11:11 145.880/145.840
LO-87 27 Jun 00:12:35 00:15:27 23° 264° (W) 00:18:22 145.935 - 145.965
TIGRISAT 27 Jun 00:16:33 00:20:06 22° 293° (WNW) 00:23:36 435.000
EO-79 27 Jun 00:28:20 00:32:12 33° 97° (E) 00:36:03 145.935-145.965
YUBILEINY 27 Jun 00:32:04 00:37:59 19° 296° (WNW) 00:43:59 435.215
VELOX 1 27 Jun 00:37:12 00:41:31 65° 75° (ENE) 00:45:52 145.980
DUCHIFAT 1 27 Jun 00:40:31 00:44:28 36° 98° (E) 00:48:22 145.980
SO-50 27 Jun 00:41:06 00:44:18 19° 249° (WSW) 00:47:30 436.795
ESTCUBE 1 27 Jun 00:42:53 00:46:35 25° 264° (W) 00:50:19 437.505/2401.250
SPROUT 27 Jun 00:47:18 00:51:34 88° 266° (W) 00:55:53 437.525
NANOSAT C BR1 27 Jun 00:49:41 00:53:52 53° 100° (E) 00:58:00 145.865
DX 1 27 Jun 00:52:40 00:56:27 30° 70° (ENE) 01:00:15 434.975-435.025
RS-15 27 Jun 00:59:57 01:08:58 22° 341° (NNW) 01:17:59 29.354- 29.394
UKube-1 27 Jun 01:06:51 01:10:33 29° 69° (ENE) 01:14:16 .
AIST 2D 27 Jun 01:07:04 01:10:04 27° 288° (WNW) 01:13:02 435.315
50 SAT 27 Jun 01:19:59 01:23:20 80° 258° (WSW) 01:26:43 437.505
Oscar 19 27 Jun 01:24:53 01:27:21 13° 91° (E) 01:29:48 437.125/150
POLYITAN 1 27 Jun 01:28:54 01:33:01 47° 287° (WNW) 01:37:06 437.675
QB50P2 27 Jun 01:40:04 01:43:53 32° 290° (WNW) 01:47:40 145.880/145.840
BUGSAT 1 27 Jun 01:44:28 01:48:40 58° 100° (E) 01:52:48 437.445
EO-79 27 Jun 02:04:37 02:07:43 20° 293° (WNW) 02:10:48 145.935-145.965
DUCHIFAT 1 27 Jun 02:16:57 02:19:50 18° 293° (WNW) 02:22:43 145.980
VELOX 1 27 Jun 02:18:10 02:18:22 10° 270° (W) 02:18:36 145.980
NANOSAT C BR1 27 Jun 02:27:07 02:29:05 13° 296° (WNW) 02:31:02 145.865
MOZHAYETS 4 27 Jun 02:27:10 02:29:22 13° 63° (ENE) 02:31:34
Gurwin Techsat 1B 27 Jun 02:28:22 02:33:16 36° 98° (E) 02:38:08 435.225
DX 1 27 Jun 02:29:19 02:32:37 21° 265° (W) 02:35:58 434.975-435.025
UKube-1 27 Jun 02:43:12 02:46:33 22° 265° (W) 02:49:55 .
ITUPSAT 1 27 Jun 02:58:20 03:02:54 45° 71° (ENE) 03:07:28 437.325
Oscar 19 27 Jun 03:02:01 03:07:06 66° 286° (WNW) 03:12:09 437.125/150
BEESAT 27 Jun 03:07:07 03:11:48 57° 73° (ENE) 03:16:30 436.000
NO-84 27 Jun 03:12:08 03:14:50 16° 22° (NNE) 03:17:34 435.350 FM
RS-15 27 Jun 03:18:54 03:27:52 22° 18° (NNE) 03:36:36 29.354- 29.394
AO-7 27 Jun 03:21:21 03:27:10 20° 93° (E) 03:32:55 .
BUGSAT 1 27 Jun 03:21:50 03:23:29 12° 296° (WNW) 03:25:09 437.445
ITAMSAT 1 27 Jun 03:43:33 03:47:38 23° 94° (E) 03:51:42 435.822/435.867
KKS-1 27 Jun 03:50:03 03:51:43 12° 63° (ENE) 03:53:24 437.445
MOZHAYETS 4 27 Jun 04:01:23 04:05:58 62° 259° (W) 04:10:35
Gurwin Techsat 1B 27 Jun 04:08:37 04:13:01 27° 293° (WNW) 04:17:25 435.225
AO-85 27 Jun 04:35:18 04:38:20 20° 48° (NE) 04:41:31 145.980
ITUPSAT 1 27 Jun 04:37:39 04:40:54 18° 267° (W) 04:44:10 437.325
CUBESAT XI-V 27 Jun 04:46:35 04:51:12 72° 75° (ENE) 04:55:49 437.345
BEESAT 27 Jun 04:47:24 04:49:54 14° 268° (W) 04:52:24 436.000
NO-84 27 Jun 04:48:50 04:53:12 62° 41° (NE) 04:57:27 435.350 FM
AO-7 27 Jun 05:12:17 05:20:41 80° 290° (WNW) 05:29:02 .
BEESAT 3 27 Jun 05:15:11 05:18:34 25° 50° (NE) 05:21:55 437.485
ITAMSAT 1 27 Jun 05:22:20 05:27:13 41° 290° (WNW) 05:32:05 435.822/435.867
KKS-1 27 Jun 05:23:20 05:27:42 64° 258° (WSW) 05:32:08 437.445
RS-15 27 Jun 05:32:14 05:44:08 54° 49° (NE) 05:55:25 29.354- 29.394
STARS 27 Jun 05:48:18 05:52:40 83° 259° (W) 05:57:06 437.465
DOVE 4 27 Jun 05:58:18 06:02:31 26° 95° (E) 06:06:51 437.250
XW-2D 27 Jun 06:10:06 06:10:55 11° 91° (E) 06:11:45 145.860 - 145.880
AO-85 27 Jun 06:14:54 06:18:52 42° 244° (WSW) 06:23:04 145.980
BEESAT 2 27 Jun 06:17:38 06:21:30 40° 54° (NE) 06:25:18 435.950
XW-2B 27 Jun 06:18:11 06:20:02 13° 92° (E) 06:21:54 145.730 - 145.750
LilacSat-2 27 Jun 06:19:12 06:21:24 15° 93° (E) 06:23:36 437.200
NO-84 27 Jun 06:27:30 06:30:23 17° 238° (WSW) 06:33:11 435.350 FM
CUBESAT XI-V 27 Jun 06:28:39 06:29:00 10° 270° (W) 06:29:23 437.345
XW-2C 27 Jun 06:32:52 06:35:46 21° 95° (E) 06:38:38 145.795 - 145.815
CUTE-I 27 Jun 06:38:02 06:42:26 25° 95° (E) 06:46:48 437.470
KAITUO 1B 27 Jun 06:42:47 06:45:37 21° 95° (E) 06:48:26 145.475/437.950
BEESAT 3 27 Jun 06:52:42 06:56:05 26° 247° (WSW) 06:59:23 437.485
ISS 27 Jun 07:02:22 07:03:05 11° 127° (SE) 07:03:49 437.550
AO-7 27 Jun 07:07:02 07:12:10 18° 309° (NW) 07:17:18 .
O/OREOS (USA 219) 27 Jun 07:11:46 07:15:58 38° 64° (ENE) 07:20:07 437.305
NUDT-PHONESAT 27 Jun 07:15:21 07:18:59 55° 99° (E) 07:22:35 437.300
HO-68 27 Jun 07:24:22 07:29:46 22° 93° (E) 07:35:05 435.675
DOVE 4 27 Jun 07:35:41 07:40:09 34° 289° (WNW) 07:44:47 437.250
XW-2F 27 Jun 07:36:25 07:40:06 57° 284° (WNW) 07:43:45 145.980 - 146.000
STRAND 1 27 Jun 07:38:59 07:44:05 75° 75° (ENE) 07:49:16 437.568
XW-2A 27 Jun 07:40:02 07:40:57 11° 92° (E) 07:41:53 145.665 - 145.685
XW-2D 27 Jun 07:41:44 07:45:20 45° 286° (WNW) 07:48:55 145.860 - 145.880
CUTE 1.7 + AOD 2 27 Jun 07:44:15 07:47:35 22° 95° (E) 07:50:53 437.475
RS-15 27 Jun 07:45:16 07:56:23 47° 252° (WSW) 08:06:59 29.354- 29.394
XW-2B 27 Jun 07:50:54 07:54:22 36° 287° (WNW) 07:57:48 145.730 - 145.750
LilacSat-2 27 Jun 07:52:22 07:55:46 32° 288° (WNW) 07:59:09 437.200
Tancredo 1 27 Jun 07:55:42 07:58:43 84° 322° (NW) 08:01:45 437.200
BEESAT 2 27 Jun 07:56:20 07:58:55 16° 250° (WSW) 08:01:28 435.950
XW-2C 27 Jun 08:06:52 08:09:52 23° 290° (WNW) 08:12:51 145.795 - 145.815
AAUSAT CUBESAT 2 27 Jun 08:10:28 08:12:07 12° 91° (E) 08:13:46 437.432
CUBEBUG 2 27 Jun 08:13:34 08:17:30 26° 95° (E) 08:21:20 437.445
KAITUO 1B 27 Jun 08:16:36 08:19:33 22° 290° (WNW) 08:22:27 145.475/437.950
CUTE-I 27 Jun 08:17:34 08:22:32 39° 291° (WNW) 08:27:29 437.470
FO-29 27 Jun 08:32:55 08:36:36 16° 56° (NE) 08:40:30 435.910
ZACube-1 27 Jun 08:35:33 08:37:51 14° 91° (E) 08:40:06 437.345
ISS 27 Jun 08:35:52 08:39:07 72° 323° (NW) 08:42:24 437.550
UWE-3 27 Jun 08:43:20 08:47:25 32° 96° (E) 08:51:23 435.000/436.395/437.385
YUBILEINY 27 Jun 08:43:25 08:51:36 40° 74° (ENE) 08:59:41 435.215
O/OREOS (USA 219) 27 Jun 08:52:00 08:55:01 18° 260° (W) 08:58:02 437.305
SEEDS 27 Jun 08:58:18 09:02:27 76° 284° (WNW) 09:06:36 437.485
XW-2A 27 Jun 09:10:43 09:13:50 34° 287° (WNW) 09:16:56 145.665 - 145.685
HO-68 27 Jun 09:10:51 09:17:56 65° 290° (WNW) 09:24:59 435.675
CUTE 1.7 + AOD 2 27 Jun 09:19:49 09:23:21 27° 290° (WNW) 09:26:54 437.475
STRAND 1 27 Jun 09:22:04 09:23:47 12° 270° (W) 09:25:32 437.568
Tancredo 1 27 Jun 09:32:56 09:34:41 14° 339° (NNW) 09:36:27 437.200
AO-73 27 Jun 09:33:50 09:38:12 58° 100° (E) 09:42:26 145.935
TIGRISAT 27 Jun 09:36:42 09:40:34 27° 68° (ENE) 09:44:30 435.000
AAUSAT CUBESAT 2 27 Jun 09:43:52 09:47:50 48° 286° (WNW) 09:51:47 437.432
CUBEBUG 2 27 Jun 09:50:01 09:54:02 29° 291° (WNW) 09:57:57 437.445
Oscar 11 27 Jun 09:58:42 10:03:01 85° 100° (E) 10:07:19 .
M-CUBED/EXP-1 PRIME 27 Jun 10:01:56 10:05:07 47° 255° (WSW) 10:08:17 437.505
ZACube-1 27 Jun 10:10:07 10:14:24 48° 287° (WNW) 10:18:34 437.345
ISS 27 Jun 10:14:07 10:16:05 15° 341° (NNW) 10:18:04 437.550
FO-29 27 Jun 10:14:25 10:20:29 88° 253° (WSW) 10:27:27 435.910
UNISAT 6 27 Jun 10:18:30 10:23:06 82° 76° (ENE) 10:27:49 437.425
UWE-3 27 Jun 10:20:06 10:23:40 23° 292° (WNW) 10:27:08 435.000/436.395/437.385
PRISM 27 Jun 10:30:23 10:34:25 67° 259° (WSW) 10:38:27 437.425
YUBILEINY 27 Jun 10:40:15 10:48:22 43° 273° (W) 10:56:25 435.215
DELFI C3 27 Jun 10:53:07 10:57:03 86° 289° (WNW) 11:01:01 145.870
QB50P2 27 Jun 10:57:17 10:59:25 14° 64° (ENE) 11:01:33 145.880/145.840
HO-68 27 Jun 11:02:00 11:04:16 12° 309° (NW) 11:06:33 435.675
AO-73 27 Jun 11:11:57 11:13:52 13° 296° (WNW) 11:15:46 145.935
TIGRISAT 27 Jun 11:13:10 11:17:08 28° 265° (W) 11:21:11 435.000
EO-79 27 Jun 11:19:46 11:23:02 22° 68° (ENE) 11:26:19 145.935-145.965
EO-88 27 Jun 11:23:42 11:27:14 49° 285° (WNW) 11:30:44 145.990 - 145.960
DUCHIFAT 1 27 Jun 11:31:15 11:34:37 23° 68° (ENE) 11:38:00 145.980
AIST 2D 27 Jun 11:39:12 11:42:44 80° 77° (ENE) 11:46:18 435.315
LO-87 27 Jun 11:40:08 11:43:16 27° 96° (E) 11:46:24 145.935 - 145.965
NANOSAT C BR1 27 Jun 11:40:22 11:44:10 33° 71° (ENE) 11:48:00 145.865
PCSat 27 Jun 12:04:25 12:09:49 74° 115° (ESE) 12:15:15 145.827
FO-29 27 Jun 12:04:29 12:06:43 12° 276° (W) 12:09:01 435.910
POLYITAN 1 27 Jun 12:19:28 12:23:44 77° 259° (WSW) 12:28:02 437.675
VELOX 1 27 Jun 12:29:58 12:32:10 13° 92° (E) 12:34:22 145.980
QB50P2 27 Jun 12:30:36 12:34:44 51° 260° (W) 12:38:55 145.880/145.840
BUGSAT 1 27 Jun 12:32:47 12:36:30 33° 71° (ENE) 12:40:17 437.445
SPROUT 27 Jun 12:35:12 12:38:02 17° 93° (E) 12:40:52 437.525
ESTCUBE 1 27 Jun 12:35:25 12:39:54 73° 102° (ESE) 12:44:22 437.505/2401.250
Oscar 19 27 Jun 12:40:12 12:43:45 19° 64° (ENE) 12:47:17 437.125/150
Tancredo 1 27 Jun 12:46:29 12:48:03 13° 19° (NNE) 12:49:37 437.200
EO-79 27 Jun 12:54:53 12:58:36 30° 263° (W) 13:02:23 145.935-145.965
DUCHIFAT 1 27 Jun 13:06:32 13:10:08 27° 264° (W) 13:13:47 145.980
LO-87 27 Jun 13:14:03 13:16:29 17° 292° (WNW) 13:18:55 145.935 - 145.965
SO-50 27 Jun 13:14:05 13:17:11 18° 110° (ESE) 13:20:16 436.795
NANOSAT C BR1 27 Jun 13:16:53 13:19:55 19° 266° (W) 13:23:00 145.865
ISS 27 Jun 13:29:06 13:31:19 16° 21° (NNE) 13:33:32 437.550
Gurwin Techsat 1B 27 Jun 13:48:05 13:53:12 52° 72° (ENE) 13:58:22 435.225
JUGNU 27 Jun 13:49:07 13:50:46 11° 176° (S) 13:52:26 437.505
PCSat 27 Jun 13:50:11 13:53:47 18° 314° (NW) 13:57:25 145.827
VELOX 1 27 Jun 14:04:34 14:08:52 51° 287° (WNW) 14:13:10 145.980
BUGSAT 1 27 Jun 14:09:01 14:11:55 18° 266° (W) 14:14:51 437.445
SPROUT 27 Jun 14:10:04 14:14:04 38° 288° (WNW) 14:18:02 437.525
ESTCUBE 1 27 Jun 14:15:00 14:16:04 11° 298° (WNW) 14:17:07 437.505/2401.250
50 SAT 27 Jun 14:16:02 14:19:26 64° 284° (WNW) 14:22:48 437.505
DX 1 27 Jun 14:17:15 14:21:38 69° 103° (ESE) 14:25:58 434.975-435.025
Oscar 19 27 Jun 14:17:39 14:22:39 51° 260° (W) 14:27:40 437.125/150
AO-7 27 Jun 14:19:05 14:25:47 28° 57° (ENE) 14:32:28 .
Tancredo 1 27 Jun 14:21:03 14:24:05 70° 38° (NE) 14:27:06 437.200
UKube-1 27 Jun 14:30:05 14:34:23 63° 102° (ESE) 14:38:40 .
SO-50 27 Jun 14:52:54 14:57:17 45° 306° (NW) 15:01:39 436.795
ITAMSAT 1 27 Jun 15:00:08 15:04:41 32° 68° (ENE) 15:09:15 435.822/435.867
ITUPSAT 1 27 Jun 15:02:01 15:03:56 12° 91° (E) 15:05:51 437.325
ISS 27 Jun 15:04:53 15:08:12 89° 220° (SW) 15:11:30 437.550
BEESAT 27 Jun 15:09:45 15:12:36 16° 92° (E) 15:15:25 436.000
Gurwin Techsat 1B 27 Jun 15:29:48 15:33:25 18° 267° (W) 15:37:03 435.225
JUGNU 27 Jun 15:37:53 15:38:51 10° 187° (S) 15:39:49 437.505
DX 1 27 Jun 15:56:01 15:57:12 11° 298° (WNW) 15:58:23 434.975-435.025
MOZHAYETS 4 27 Jun 15:57:49 16:01:57 32° 97° (E) 16:06:01
UKube-1 27 Jun 16:08:21 16:09:51 12° 297° (WNW) 16:11:20 .
AO-7 27 Jun 16:09:37 16:17:52 67° 255° (WSW) 16:26:12 .
ITUPSAT 1 27 Jun 16:37:25 16:42:10 64° 287° (WNW) 16:46:53 437.325
ITAMSAT 1 27 Jun 16:39:34 16:44:05 30° 264° (W) 16:48:38 435.822/435.867
CUBESAT XI-V 27 Jun 16:45:11 16:48:27 19° 93° (E) 16:51:42 437.345
BEESAT 27 Jun 16:46:00 16:50:38 51° 288° (WNW) 16:55:14 436.000
DOVE 4 27 Jun 17:03:42 17:06:40 19° 67° (ENE) 17:09:42 437.250
KKS-1 27 Jun 17:15:46 17:19:31 26° 96° (E) 17:23:15 437.445
SRMSAT 27 Jun 17:26:10 17:28:01 11° 182° (S) 17:29:52 437.500
MOZHAYETS 4 27 Jun 17:35:19 17:38:54 23° 292° (WNW) 17:42:27
STARS 27 Jun 17:39:37 17:42:49 19° 94° (E) 17:46:01 437.465
HO-68 27 Jun 17:53:45 17:57:46 16° 55° (NE) 18:01:48 435.675
NUDT-PHONESAT 27 Jun 17:53:46 17:56:38 21° 70° (ENE) 17:59:30 437.300
CUTE-I 27 Jun 17:58:28 18:03:18 37° 69° (ENE) 18:08:10 437.470
AO-7 27 Jun 18:11:03 18:12:01 10° 273° (W) 18:12:58 .
XW-2F 27 Jun 18:15:31 18:19:13 50° 75° (ENE) 18:22:56 145.980 - 146.000
XW-2D 27 Jun 18:21:02 18:24:50 66° 76° (ENE) 18:28:39 145.860 - 145.880
CUBESAT XI-V 27 Jun 18:21:41 18:25:56 38° 288° (WNW) 18:30:11 437.345
XW-2B 27 Jun 18:30:03 18:33:54 83° 76° (ENE) 18:37:44 145.730 - 145.750
LilacSat-2 27 Jun 18:32:05 18:35:57 85° 262° (W) 18:39:49 437.200
CUTE 1.7 + AOD 2 27 Jun 18:36:35 18:38:58 15° 66° (ENE) 18:41:20 437.475
DOVE 4 27 Jun 18:40:22 18:44:06 32° 263° (W) 18:47:59 437.250
XW-2C 27 Jun 18:45:44 18:49:32 59° 260° (W) 18:53:20 145.795 - 145.815
KKS-1 27 Jun 18:52:12 18:56:00 28° 291° (WNW) 18:59:48 437.445
KAITUO 1B 27 Jun 18:54:10 18:57:55 61° 260° (W) 19:01:40 145.475/437.950
CUBEBUG 2 27 Jun 19:10:32 19:13:52 20° 66° (ENE) 19:17:17 437.445
STARS 27 Jun 19:15:10 19:19:15 36° 289° (WNW) 19:23:16 437.465
NUDT-PHONESAT 27 Jun 19:27:20 19:30:23 23° 264° (W) 19:33:26 437.300
ZACube-1 27 Jun 19:31:24 19:32:34 11° 62° (ENE) 19:33:43 437.345
HO-68 27 Jun 19:37:13 19:44:25 84° 74° (ENE) 19:51:40 435.675
UWE-3 27 Jun 19:38:57 19:42:36 24° 68° (ENE) 19:46:18 435.000/436.395/437.385
CUTE-I 27 Jun 19:38:57 19:43:23 26° 265° (W) 19:47:51 437.470
XW-2A 27 Jun 19:40:03 19:43:24 53° 76° (ENE) 19:46:47 145.665 - 145.685
SEEDS 27 Jun 19:48:12 19:52:20 60° 75° (ENE) 19:56:27 437.485
STRAND 1 27 Jun 19:51:13 19:55:38 28° 96° (E) 20:00:00 437.568
RS-15 27 Jun 19:54:05 20:04:35 37° 105° (ESE) 20:15:17 29.354- 29.394
NO-84 27 Jun 20:06:36 20:08:23 13° 120° (ESE) 20:10:13 435.350 FM
CUTE 1.7 + AOD 2 27 Jun 20:10:19 20:14:24 45° 261° (W) 20:18:29 437.475
AO-73 27 Jun 20:27:30 20:31:43 38° 72° (ENE) 20:35:57 145.935
AO-85 27 Jun 20:28:02 20:32:08 82° 120° (ESE) 20:36:05 145.980
AAUSAT CUBESAT 2 27 Jun 20:32:01 20:36:08 88° 83° (E) 20:40:16 437.432
BEESAT 3 27 Jun 20:40:10 20:44:05 64° 119° (ESE) 20:48:04 437.485
CUBEBUG 2 27 Jun 20:45:50 20:50:09 40° 263° (W) 20:54:35 437.445
Oscar 11 27 Jun 20:51:48 20:56:02 54° 74° (ENE) 21:00:16 .
PCSat 27 Jun 20:53:37 20:58:50 45° 56° (ENE) 21:04:00 145.827
